Cheraw, SC

8:38 PM EDT on July 26, 2017 (GMT -0400)
Cheraw

Weather History for KCQW - February, 2014

Change the Weather History Date:

Friday, February 14, 2014

  Actual Average (KFLO) Record (KFLO)
Temperature  
Mean Temperature 40 °F -  
Max Temperature 51 °F 60 °F 80 °F (1989)
Min Temperature 30 °F 36 °F 15 °F (1968)
Degree Days  
Heating Degree Days 24    
Moisture  
Dew Point 30 °F    
Average Humidity 71    
Maximum Humidity 100    
Minimum Humidity 40    
Precipitation  
Precipitation 0.69 in - - ()
Sea Level Pressure  
Sea Level Pressure 29.80 in    
Wind  
Wind Speed 12 mph (SW)    
Max Wind Speed 28 mph    
Max Gust Speed 34 mph    
Visibility 10 miles    
Events      
Averages and records for this station are not official NWS values.
T = Trace of Precipitation, MM = Missing Value Source: NWS Daily Summary

Daily Weather History Graph

Daily Weather History Graph

Search for Another Location

Airport or City:

Trip Planner

Search our weather history database for the weather conditions in past years. The results will help you decide how hot, cold, wet, or windy it might be!

Date:

Astronomy

Feb. 14, 2014 Rise Set
Actual Time 7:06 AM EST 6:02 PM EST
Civil Twilight 6:40 AM EST 6:27 PM EST
Nautical Twilight 6:11 AM EST 6:57 PM EST
Astronomical Twilight 5:41 AM EST 7:26 PM EST
Moon 6:02 PM EST (2/14) 6:33 AM EST (2/14)
Length of Visible Light 11h 47m
Length of Day
10h 55m
Full, 100% of the Moon is Illuminated
Feb 14
Full
Feb 14
Full
Feb 22
Last Quarter
Mar 1
New
Mar 8
First Quarter

Hourly Weather History & Observations

Time (EST) Temp. Windchill Dew Point Humidity Pressure Visibility Wind Dir Wind Speed Gust Speed Precip Events Conditions
12:15 AM 32.0 °F 23.6 °F 32.0 °F 100% 29.75 in 10.0 mi WSW 10.4 mph - 0.01 in   Clear
12:35 AM 32.0 °F 23.6 °F 32.0 °F 100% 29.75 in 10.0 mi WSW 10.4 mph - 0.01 in   Clear
12:55 AM 32.0 °F 21.6 °F 32.0 °F 100% 29.75 in 10.0 mi SW 15.0 mph - 0.01 in   Clear
1:15 AM 32.0 °F 22.1 °F 30.2 °F 93% 29.75 in 10.0 mi SW 13.8 mph - N/A   Clear
1:35 AM 32.0 °F 22.1 °F 30.2 °F 93% 29.75 in 10.0 mi SW 13.8 mph - N/A   Clear
1:55 AM 32.0 °F 22.1 °F 30.2 °F 93% 29.75 in 10.0 mi WSW 13.8 mph - N/A   Clear
2:15 AM 32.0 °F 23.0 °F 30.2 °F 93% 29.77 in 10.0 mi SW 11.5 mph - N/A   Clear
2:35 AM 32.0 °F 22.1 °F 30.2 °F 93% 29.78 in 10.0 mi WSW 13.8 mph - N/A   Clear
2:55 AM 32.0 °F 21.6 °F 30.2 °F 93% 29.78 in 10.0 mi WSW 15.0 mph 20.7 mph N/A   Clear
3:15 AM 32.0 °F 21.6 °F 30.2 °F 93% 29.79 in 10.0 mi WSW 15.0 mph 21.9 mph N/A   Clear
3:35 AM 32.0 °F 22.5 °F 30.2 °F 93% 29.79 in 10.0 mi WSW 12.7 mph 21.9 mph N/A   Clear
3:55 AM 32.0 °F 22.5 °F 30.2 °F 93% 29.78 in 10.0 mi WSW 12.7 mph 18.4 mph N/A   Clear
4:15 AM 32.0 °F 22.1 °F 30.2 °F 93% 29.79 in 10.0 mi SW 13.8 mph - N/A   Clear
4:35 AM 32.0 °F 22.5 °F 30.2 °F 93% 29.80 in 10.0 mi WSW 12.7 mph - N/A   Clear
4:55 AM 32.0 °F 22.1 °F 28.4 °F 87% 29.81 in 10.0 mi WSW 13.8 mph - N/A   Clear
5:15 AM 32.0 °F 23.6 °F 28.4 °F 87% 29.81 in 10.0 mi WSW 10.4 mph - N/A   Clear
5:35 AM 32.0 °F 23.6 °F 28.4 °F 87% 29.81 in 10.0 mi SW 10.4 mph - N/A   Clear
5:55 AM 32.0 °F 23.0 °F 28.4 °F 87% 29.81 in 10.0 mi WSW 11.5 mph - N/A   Clear
6:15 AM 32.0 °F 21.6 °F 28.4 °F 87% 29.81 in 10.0 mi SW 15.0 mph - N/A   Clear
6:35 AM 32.0 °F 22.5 °F 28.4 °F 87% 29.82 in 10.0 mi WSW 12.7 mph - N/A   Clear
6:55 AM 30.2 °F 18.5 °F 28.4 °F 93% 29.82 in 10.0 mi WSW 17.3 mph - N/A   Clear
7:15 AM 30.2 °F 20.2 °F 28.4 °F 93% 29.83 in 10.0 mi SW 12.7 mph - N/A   Clear
7:35 AM 30.2 °F 21.3 °F 28.4 °F 93% 29.84 in 10.0 mi WSW 10.4 mph - N/A   Clear
7:55 AM 30.2 °F 20.2 °F 28.4 °F 93% 29.83 in 10.0 mi WSW 12.7 mph - N/A   Clear
8:15 AM 32.0 °F 21.6 °F 28.4 °F 87% 29.83 in 10.0 mi West 15.0 mph 18.4 mph N/A   Clear
8:35 AM 32.0 °F 19.8 °F 28.4 °F 87% 29.84 in 10.0 mi WSW 20.7 mph 26.5 mph 0.01 in   Clear
8:55 AM 33.8 °F 22.8 °F 28.4 °F 81% 29.84 in 10.0 mi WSW 18.4 mph 25.3 mph 0.01 in   Clear
9:15 AM 35.6 °F 26.2 °F 30.2 °F 81% 29.85 in 10.0 mi West 15.0 mph 25.3 mph N/A   Clear
9:35 AM 37.4 °F 26.6 °F 30.2 °F 75% 29.85 in 10.0 mi WSW 21.9 mph 25.3 mph 0.02 in   Clear
9:55 AM 39.2 °F 29.3 °F 30.2 °F 70% 29.85 in 10.0 mi West 20.7 mph 29.9 mph 0.05 in   Clear
10:15 AM 41.0 °F 32.2 °F 32.0 °F 70% 29.85 in 10.0 mi WSW 18.4 mph 24.2 mph 0.02 in   Clear
10:35 AM 42.8 °F 34.8 °F 26.6 °F 53% 29.84 in 10.0 mi West 17.3 mph 27.6 mph 0.07 in   Clear
10:55 AM 44.6 °F 37.4 °F 26.6 °F 49% 29.85 in 10.0 mi SW 16.1 mph 25.3 mph 0.12 in   Clear
11:15 AM 44.6 °F 38.4 °F 26.6 °F 49% 29.84 in 10.0 mi SW 12.7 mph 21.9 mph 0.04 in   Clear
11:35 AM 46.4 °F 39.2 °F 26.6 °F 46% 29.83 in 10.0 mi WSW 18.4 mph 23.0 mph 0.09 in   Clear
11:55 AM 48.2 °F - 26.6 °F 43% 29.82 in 10.0 mi WSW 18.4 mph 26.5 mph 0.14 in   Clear
12:15 PM 48.2 °F - 26.6 °F 43% 29.82 in 10.0 mi SW 18.4 mph 23.0 mph 0.03 in   Clear
12:35 PM 48.2 °F - 26.6 °F 43% 29.82 in 10.0 mi SW 16.1 mph 23.0 mph 0.08 in   Clear
12:55 PM 48.2 °F - 26.6 °F 43% 29.82 in 10.0 mi SSW 10.4 mph 21.9 mph 0.11 in   Clear
1:15 PM 50.0 °F - 26.6 °F 40% 29.82 in 10.0 mi WSW 11.5 mph 23.0 mph 0.03 in   Clear
1:35 PM 50.0 °F - 26.6 °F 40% 29.82 in 10.0 mi West 13.8 mph 28.8 mph 0.07 in   Clear
1:55 PM 50.0 °F - 28.4 °F 43% 29.81 in 10.0 mi SSW 19.6 mph 31.1 mph 0.11 in   Clear
2:15 PM 50.0 °F - 28.4 °F 43% 29.82 in 10.0 mi SSW 24.2 mph 31.1 mph 0.03 in   Clear
2:35 PM 51.8 °F - 28.4 °F 41% 29.83 in 10.0 mi SW 19.6 mph 33.4 mph 0.07 in   Clear
2:55 PM 50.0 °F - 28.4 °F 43% 29.82 in 10.0 mi SSW 19.6 mph 33.4 mph 0.09 in   Clear
3:15 PM 50.0 °F - 28.4 °F 43% 29.82 in 10.0 mi SSW 24.2 mph 27.6 mph 0.02 in   Clear
3:35 PM 50.0 °F - 28.4 °F 43% 29.80 in 10.0 mi SSW 13.8 mph 18.4 mph 0.02 in   Clear
3:55 PM 50.0 °F - 30.2 °F 47% 29.81 in 10.0 mi SSW 27.6 mph 34.5 mph 0.04 in   Clear
4:15 PM 50.0 °F - 28.4 °F 43% 29.80 in 10.0 mi SSW 20.7 mph 31.1 mph 0.01 in   Clear
4:35 PM 50.0 °F - 28.4 °F 43% 29.79 in 10.0 mi SSW 13.8 mph 31.1 mph 0.01 in   Clear
4:55 PM 50.0 °F - 30.2 °F 47% 29.78 in 10.0 mi SSW 18.4 mph 26.5 mph 0.01 in   Clear
5:15 PM 48.2 °F - 30.2 °F 50% 29.79 in 10.0 mi SSW 11.5 mph - N/A   Clear
5:35 PM 48.2 °F - 32.0 °F 54% 29.78 in 10.0 mi Calm Calm - N/A   Clear
5:55 PM 48.2 °F - 32.0 °F 54% 29.79 in 10.0 mi Calm Calm - N/A   Clear
6:15 PM 44.6 °F - 32.0 °F 61% 29.80 in 10.0 mi Calm Calm - N/A   Clear
6:35 PM 42.8 °F - 32.0 °F 66% 29.80 in 10.0 mi Calm Calm - N/A   Clear
6:55 PM 42.8 °F - 32.0 °F 66% 29.80 in 10.0 mi Calm Calm - N/A   Clear
7:15 PM 44.6 °F - 32.0 °F 61% 29.80 in 10.0 mi Calm Calm - N/A   Clear
7:35 PM 39.2 °F - 32.0 °F 75% 29.79 in 10.0 mi Calm Calm - N/A   Clear
7:55 PM 39.2 °F - 32.0 °F 75% 29.78 in 10.0 mi Calm Calm - N/A   Clear
8:15 PM 37.4 °F - 33.8 °F 87% 29.79 in 10.0 mi Calm Calm - N/A   Clear
8:35 PM 39.2 °F - 33.8 °F 81% 29.78 in 10.0 mi Calm Calm - N/A   Clear
8:55 PM 35.6 °F - 32.0 °F 87% 29.76 in 10.0 mi Calm Calm - N/A   Clear
9:15 PM 37.4 °F - 33.8 °F 87% 29.77 in 10.0 mi Calm Calm - N/A   Clear
9:35 PM 41.0 °F - 32.0 °F 70% 29.78 in 10.0 mi Calm Calm - N/A   Clear
9:55 PM 41.0 °F - 33.8 °F 76% 29.77 in 10.0 mi Calm Calm - N/A   Clear
10:15 PM 41.0 °F - 33.8 °F 76% 29.77 in 10.0 mi Calm Calm - N/A   Clear
10:35 PM 41.0 °F - 32.0 °F 70% 29.74 in 10.0 mi Calm Calm - N/A   Clear
10:55 PM 41.0 °F - 33.8 °F 76% 29.76 in 10.0 mi Calm Calm - N/A   Clear
11:15 PM 42.8 °F 38.0 °F 33.8 °F 70% 29.75 in 10.0 mi SSW 8.1 mph - N/A   Clear
11:35 PM 41.0 °F - 33.8 °F 76% 29.74 in 10.0 mi Calm Calm - N/A   Clear
11:55 PM 41.0 °F - 33.8 °F 76% 29.72 in 10.0 mi Calm Calm - N/A   Clear